Regional Weather Roundup
Issued by NWS

Home | Current Version | Previous Version | Graphics & Text | Print | Product List | Glossary On
Versions: 1 2 3 4 5 6 7 8 9 10 11 12 13 14 15 16 17 18 19 20 21 22 23 24 25 26 27 28 29 30 31 32 33 34 35 36 37 38 39 40 41 42 43 44 45 46 47 48 49 50
000
ASUS43 KFSD 181010
RWRSD

WEATHER ROUNDUP FOR SOUTH DAKOTA
NATIONAL WEATHER SERVICE SIOUX FALLS SD
400 AM CST SAT NOV 18 2017

NOTE: "FAIR" INDICATES FEW OR NO CLOUDS BELOW 12,000 FEET WITH NO
SIGNIFICANT WEATHER AND/OR OBSTRUCTIONS TO VISIBILITY.


SDZ001>005-009-010-012>017-181100-
NORTHWEST AND NORTH CENTRAL SOUTH DAKOTA

CITY           SKY/WX    TMP DP  RH WIND       PRES   REMARKS
BUFFALO          N/A     28  23  81 NW17      29.89R WCI  16
FAITH            N/A     30  27  88 W14       29.94R WCI  19
MOBRIDGE       CLEAR     30  26  85 NW10      29.86R WCI  21
$$

SDZ012>016-024>037-041>051-057-063-072>074-181100-
SOUTHWEST AND SOUTH CENTRAL SOUTH DAKOTA

CITY           SKY/WX    TMP DP  RH WIND       PRES   REMARKS
RAPID CTY ARPT CLEAR     34  23  64 NW20      29.98R WCI  23
PIERRE         CLEAR     36  33  89 NW13      29.88R
CUSTER         CLEAR     26  16  65 NW7       29.96R WCI  18
ELLSWORTH AFB  CLEAR     35  22  59 NW20      29.97R WCI  24
PHILIP         CLEAR     34  31  88 NW16      29.96R WCI  24
PINE RIDGE     CLEAR     25  23  92 SW5       30.00R WCI  19
SPEARFISH      CLOUDY    34  19  55 W16G25    30.00R WCI  23
WINNER         LGT RAIN  40  36  86 W12       29.89R
$$

SDZ004>011-016>023-039-040-181100-
NORTHEAST SOUTH DAKOTA

CITY           SKY/WX    TMP DP  RH WIND       PRES   REMARKS
ABERDEEN       PTCLDY    19  18  95 NW6       29.88R WCI  11
WATERTOWN      PTCLDY    26  22  84 NW13      29.80R WCI  15
BROOKINGS      PTCLDY    29  24  82 N12       29.80R WCI  19
SISSETON         N/A     22  18  85 NW14      29.85R WCI   9
$$

SDZ017-020-022-023-036>040-048>070-181100-
SOUTHEAST SOUTH DAKOTA

CITY           SKY/WX    TMP DP  RH WIND       PRES   REMARKS
SIOUX FALLS    CLOUDY    35  26  69 N10       29.79R WCI  27
HURON          MOCLDY    28  21  75 N9        29.87R WCI  19
CHAMBERLAIN    CLOUDY    38  36  90 W9        29.87R
MITCHELL       CLOUDY    32  23  69 NW12      29.86R HAZE    WCI  23
YANKTON        CLOUDY    35  28  75 NW16      29.81R WCI  25
$$

ABBREVIATIONS USED IN REMARKS
   TC - TEMPERATURE IN CELSIUS
  WCI - WIND CHILL INDEX
   HX - HEAT INDEX
  VSB - VISIBILITY





USA.gov is the U.S. government's official web portal to all federal, state and local government web resources and services.